Regional Weather Roundup
Issued by NWS

Home | Current Version | Previous Version | Text Only | Print | Product List | Glossary Off
Versions: 1 2 3 4 5 6 7 8 9 10 11 12 13 14 15 16 17 18 19 20 21 22 23 24 25 26 27 28 29 30 31 32 33 34 35 36 37 38 39 40 41 42 43 44 45 46 47 48 49 50

000
ASUS45 KTFX 231704
RWRMT
MONTANA HOURLY WEATHER ROUNDUP
NATIONAL WEATHER SERVICE GREAT FALLS MT
1004 AM MST SUN NOV 23 2014

NOTE: "FAIR" INDICATES FEW OR NO CLOUDS BELOW 12000 FEET WITH NO
SIGNIFICANT WEATHER AND/OR OBSTRUCTIONS TO VISIBILITY.

* THESE STATIONS ARE NOT UNDER NWS QUALITY CONTROL. THEY DO NOT
   REPORT WEATHER SUCH AS PRECIPITATION OR FOG.

MTZ001>007-043-231800-
WEST OF THE DIVIDE
CITY           SKY/WX    TMP DP  RH WIND       PRES   REMARKS
KALISPELL      CLOUDY    36  25  64 SW6       30.06R WCI  31
MISSOULA       CLOUDY    36  27  70 CALM      30.12S
BUTTE          CLOUDY    28  18  66 NW13      30.04R WCI  17
MULLAN PASS    LGT SNOW  27  23  85 VRB3G22   30.01S VSB 1/2
* ESSEX        N/A       34  19  54 NW5        N/A   WCI  29
* LINCOLN      N/A       29  20  69 SW7G19     N/A   WCI  22
* LOOKOUT PASS N/A       29  27  92 SE2G9      N/A
* POLSON       N/A       33  26  75 SE1        N/A
* RONAN APT    PTSUNNY   34  27  76 SE5        N/A   WCI  29
* SEELEY LAKE  N/A       31  22  69 NW6G13     N/A   WCI  25
* THOMP F APT  CLOUDY    26  12  55 N11G20     N/A   WCI  16
* YAAK HILL    N/A       29  27  92 N/A        N/A
$$

MTZ008-052>055-231800-
SOUTHWEST MONTANA
CITY           SKY/WX    TMP DP  RH WIND       PRES   REMARKS
BOZEMAN        PTSUNNY   34  19  54 W14       30.02R WCI  24
DILLON         CLOUDY    32  18  56 SW17      30.05R WCI  21
* W YELLOWSTON PTCLDY    23  16  74 SW4G13     N/A
* ENNIS APT    PTSUNNY   30  14  51 E3         N/A
* THREE FORKS  PTCLDY    34  25  70 N/A        N/A
* BOULDER HILL N/A       29  10  45 SE4G13     N/A
* MONIDA PASS  N/A       23  12  63 NW30G37    N/A   WCI   5
* RAYNOLDS PAS N/A       22  22 100 VRB6       N/A   WCI  14
* WHITEHALL    N/A       32  20  61 SW7G16     N/A   WCI  25
* WISE RIVER   N/A       30  15  54 W18G25     N/A   WCI  18
$$

MTZ009>010-012-014-046-048-049-054-231800-
EAST SLOPES AND CENTRAL MONTANA
CITY           SKY/WX    TMP DP  RH WIND       PRES   REMARKS
CUT BANK       SUNNY     37  18  46 W21G28    29.86R WCI  26
GREAT FALLS    PTCLDY    36  21  54 SW15      29.90R WCI  27
HELENA         PTCLDY    37  18  46 NW13      29.99R WCI  29
MALMSTROM AFB  PTCLDY    34  21  59 SW15      29.93R WCI  24
* DEARBORN     N/A       37  19  48 S7G14      N/A   WCI  32
* EAST GLACIER N/A       31  14  49 NW12G22    N/A   WCI  22
* MONARCH      N/A       29  14  53 W17G22     N/A   WCI  17
* PENDROY      N/A       36  17  46 W24G33     N/A   WCI  24
* ROGERS PASS  N/A       27  17  66 SE12G27    N/A   WCI  16
* SAINT MARY   N/A       31  18  59 S11G25     N/A   WCI  22
* SWEET GRASS  N/A       32  21  64 W18G24     N/A   WCI  21
$$

MTZ011-013-016-021-035-040-045-047-050-051-231800-
NORTH CENTRAL MONTANA
CITY           SKY/WX    TMP DP  RH WIND       PRES   REMARKS
HAVRE          SUNNY     34  23  64 W14G21    29.88R WCI  24
LEWISTOWN      SUNNY     36  21  54 NW14G22   29.87R WCI  27
* N BAR RANCH  SUNNY     30  19  64 NW14G25   29.84R WCI  19
* CHESTER      N/A       28  24  85 N/A        N/A
* DENTON       N/A       36  22  57 W17        N/A   WCI  26
* GEYSER       N/A       34  19  54 W22G32     N/A   WCI  22
* JUDITH GAP   N/A       31  22  69 NW6        N/A   WCI  25
* LOMA         N/A       34  25  70 SW10       N/A   WCI  26
$$

MTZ017>020-022>027-061-062-231800-
NORTHEAST MONTANA
CITY           SKY/WX    TMP DP  RH WIND       PRES   REMARKS
GLASGOW        PTCLDY    27  16  63 NW26G38   29.80R WCI  12
GLENDIVE       CLOUDY    25  21  85 W23       29.75R VSB 1 1/2 WCI  10
JORDAN         CLOUDY    34  21  59 NW23G30   29.81R WCI  22
SIDNEY         CLOUDY    23  12  63 NW24G30   29.73R VSB 2    WCI   7
WOLF POINT     CLOUDY    28  18  66 NW20      29.79R WCI  15
* BEAVER HILL  N/A       23  18  81 W29G37     N/A   WCI   6
* CIRCLE       N/A       26  19  75 NW16G27    N/A   WCI  13
* LINDSAY DVD  N/A       22  20  92 NW26G38    N/A   WCI   5
* NAVAJO       N/A       16  10  77 NW23G37    N/A   WCI  -2
* SACO         N/A       26  16  66 NW19G27    N/A   WCI  12
$$

MTZ028>042-056>058-231800-
SOUTHCENTRAL AND SOUTHEAST MONTANA
CITY           SKY/WX    TMP DP  RH WIND       PRES   REMARKS
BAKER          LGT SNOW  27  21  78 NW23G30   29.71R VSB 1 1/4 WCI  13
BILLINGS       PTCLDY    37  19  48 W16       29.91R WCI  28
LIVINGSTON     CLOUDY    34  19  54 W23G32    29.97R WCI  22
MILES CITY     CLOUDY    36  23  59 NW21G35   29.80R WCI  25
* LAUREL APT   PTCLDY    39  18  43 W14G25     N/A   WCI  31
* ALZADA       N/A       37  23  57 W22G29     N/A   WCI  26
* HYSHAM       N/A       34  18  52 W8         N/A   WCI  27
* REED POINT   N/A       37  22  55 W18G28     N/A   WCI  27
* ROSCOE HILL  N/A       31   9  40 SW6G20     N/A   WCI  25
$$

REGIONAL REPORTS...DAKOTAS
CITY           SKY/WX    TMP DP  RH WIND       PRES   REMARKS
WILLISTON      LGT SNOW  19  10  68 NW17G29   29.69R WCI   4
DICKINSON      LGT SNOW  25  18  75 NW29G41   29.59R WCI   8
BEACH          LGT SNOW  23  19  85 NW37G46   29.70R VSB 3    WCI   4
CROSBY         LGT SNOW  16  12  84 NW26G35   29.65R WCI  -3
BISMARCK       CLOUDY    28  19  69 W23G32    29.55R WCI  14
GRAND FORKS    CLOUDY    45  34  65 W12       29.40R
FARGO          CLOUDY    45  36  71 W9        29.44R
BUFFALO SD     PTCLDY    37  23  57 NW40G49   29.59R WCI  23
RAPID CITY     PTCLDY    43  19  38 NW37G46   29.69S
$$

REGIONAL REPORTS...WYOMING/IDAHO/WASHINGTON
CITY           SKY/WX    TMP DP  RH WIND       PRES   REMARKS
SHERIDAN       CLOUDY    39  19  45 NW26G40   29.86R WCI  28
CODY           CLOUDY    34  16  48 W7G17     29.89R WCI  28
YELLOWSTONE LA PTCLDY    19  14  81 VRB7G16   29.96R WCI  10
SALMON         CLOUDY    30  25  82 NW3       30.16R
MULLAN PASS    LGT SNOW  27  23  85 VRB3G22   30.01S VSB 1/2
SAND POINT     CLOUDY    34  32  92 SW5       30.11F WCI  29
SPOKANE        CLOUDY    36  34  92 S17G24    30.09S WCI  26
$$

REGIONAL REPORTS...SASKATCHEWAN
CITY           SKY/WX    TMP DP  RH WIND       PRES   REMARKS
SWIFT CURRENT  CLOUDY    16  14  92 NW21      29.77R WCI  -1
REGINA         SNOW      10   7  88 NW21G26   29.74R WCI  -9

$$



USA.gov is the U.S. government's official web portal to all federal, state and local government web resources and services.